This is the latest recevied weather packets stored in our database for station/object PU5FJO-13. If no packets are shown the sender has not sent any weather packets the latest 10 day(s).
| Time | Temp. | Humidity | Pressure | Rain* | Wind** | Luminosity | Snow |
|---|---|---|---|---|---|---|---|
| 1777287365 | 19.44° C | 85% | 1013.7 hPa | - | - | - | - |
| 1777286765 | 18.89° C | 85% | 1013.6 hPa | - | - | - | - |
| 1777286165 | 18.89° C | 85% | 1013.5 hPa | - | - | - | - |
| 1777285565 | 18.89° C | 85% | 1013.4 hPa | - | - | - | - |
| 1777284965 | 18.89° C | 83% | 1013.2 hPa | - | - | - | - |
| 1777284365 | 18.33° C | 85% | 1012.9 hPa | - | - | - | - |
| 1777283765 | 17.78° C | 86% | 1012.6 hPa | - | - | - | - |
| 1777283165 | 18.89° C | 81% | 1012.3 hPa | - | - | - | - |
| 1777282565 | 19.44° C | 82% | 1012.2 hPa | - | - | - | - |
| 1777281965 | 20° C | 81% | 1012 hPa | - | - | - | - |
| 1777281365 | 19.44° C | 83% | 1011.9 hPa | - | - | - | - |
| 1777280765 | 20° C | 81% | 1011.7 hPa | - | - | - | - |
| 1777280165 | 18.89° C | 85% | 1011.6 hPa | - | - | - | - |
| 1777279566 | 19.44° C | 83% | 1011.2 hPa | - | - | - | - |
| 1777278965 | 19.44° C | 82% | 1011.2 hPa | - | - | - | - |
| 1777278365 | 20.56° C | 78% | 1011.1 hPa | - | - | - | - |
| 1777277765 | 20° C | 82% | 1011.1 hPa | - | - | - | - |
| 1777277165 | 21.11° C | 75% | 1011 hPa | - | - | - | - |
| 1777276565 | 21.67° C | 76% | 1011 hPa | - | - | - | - |
| 1777275965 | 21.67° C | 76% | 1010.9 hPa | - | - | - | - |
| 1777275365 | 21.67° C | 76% | 1011 hPa | - | - | - | - |
| 1777274768 | 21.67° C | 78% | 1010.8 hPa | - | - | - | - |
| 1777274165 | 21.11° C | 81% | 1011 hPa | - | - | - | - |
| 1777273565 | 21.11° C | 81% | 1010.7 hPa | - | - | - | - |
| 1777272965 | 20.56° C | 84% | 1010.8 hPa | - | - | - | - |
* Rain since midnight (hover to see other rain measurements)
** Current wind speed in m/s (hover to see current wind gust speed)